Temp
10 10 10 10 10 10 10 9 9 9 9 9 10 9 9 9 9 9 9 10 10 10 10 10 10 10 9 9 9 8 7 7 8 7 7 7 7 7 7 7 7 6 6
9 9 9 9 9 9 8 9 10 10 10 10 10 9 10 9 9 9 10 10 10 10 10 9 10 9 9 9 9 8 7 8 8 7 7 7 7 7 7 6 6 6 5
9 9 9 9 8 8 9 10 10 10 10 10 10 10 9 9 9 9 10 10 10 10 9 9 9 9 9 9 8 8 7 7 7 7 7 7 6 6 6 6 5 5 4
8 9 8 9 9 9 10 10 10 9 9 9 8 8 8 8 8 9 9 9 10 10 9 10 9 8 8 8 8 7 7 7 7 7 7 6 6 6 5 5 5 4 4
9 8 8 8 8 9 9 9 9 8 8 8 8 8 8 8 9 9 9 10 10 10 9 9 8 8 8 7 7 7 7 7 7 7 6 6 5 5 4 4 3 3 2
8 7 7 7 8 8 8 8 8 8 8 8 8 9 8 8 9 8 9 9 9 9 8 7 6 7 7 7 7 7 7 7 7 6 5 5 5 4 3 2 2 2 1
8 7 7 7 8 8 8 8 8 8 8 8 8 8 8 8 8 8 8 9 9 8 9 8 7 7 7 7 7 7 6 6 6 6 4 4 3 3 2 2 1 1 0
7 7 7 7 8 9 8 8 8 8 8 8 8 8 8 7 8 8 8 8 9 7 7 7 7 6 6 6 6 6 6 5 5 4 3 3 2 2 1 1 0 -0 -1
7 7 7 8 8 8 8 8 8 8 8 8 7 7 7 7 7 8 8 8 8 7 6 6 6 7 6 6 6 6 5 4 2 2 2 2 0 -0 -1 -1 -2 -3 -3
8 7 7 7 8 8 8 8 7 8 8 7 7 7 7 7 7 7 7 8 8 7 6 6 6 6 5 4 4 4 4 2 1 1 0 -0 -1 -2 -2 -2 -3 -4 -4
9 7 7 7 7 8 8 8 8 8 8 7 7 7 7 7 6 7 7 7 7 7 7 6 5 4 4 4 3 3 3 2 0 -1 -1 -2 -3 -3 -4 -4 -5 -5 -5
8 7 7 7 7 7 7 7 7 7 7 7 7 6 6 6 6 5 6 6 6 7 6 5 4 3 2 2 2 2 1 -0 -1 -2 -2 -2 -3 -3 -3 -4 -5 -5 -5
8 7 7 7 7 7 7 7 7 7 6 6 6 6 5 5 5 5 6 6 5 6 5 4 3 3 2 2 1 0 -1 -1 -1 -1 -1 -2 -2 -3 -4 -4 -5 -6 -6
8 7 7 7 6 7 7 7 7 7 7 6 6 5 5 5 6 6 6 5 5 5 4 3 3 2 2 2 1 1 0 0 -0 -0 -1 -1 -2 -4 -4 -5 -5 -6 -6
8 7 6 6 6 6 6 7 7 7 7 5 5 6 6 6 6 6 5 5 4 4 3 3 3 2 2 2 1 1 0 0 -0 -0 -1 -2 -2 -3 -4 -5 -6 -6 -7
7 7 6 6 6 7 6 6 5 6 6 5 5 6 5 6 5 5 4 4 4 3 3 3 3 2 2 1 1 1 0 0 -0 -1 -1 -2 -2 -3 -4 -5 -6 -8 -9
8 7 6 6 6 6 6 6 6 4 4 4 4 5 5 6 5 5 4 4 3 3 3 3 2 2 1 1 1 1 0 -0 -1 -1 -1 -2 -3 -4 -4 -5 -6 -9 -9
7 7 7 6 6 5 5 5 6 5 5 4 4 5 5 5 5 4 4 4 4 2 2 2 2 1 1 1 1 0 0 -0 -1 -1 -2 -3 -3 -4 -5 -6 -8 -9 -9
7 7 7 6 5 5 4 4 5 5 6 5 4 4 4 5 4 4 4 3 4 3 3 2 1 1 1 1 1 1 0 -1 -1 -2 -2 -3 -4 -4 -5 -6 -8 -8 -10
6 7 7 6 5 5 4 4 4 5 6 6 6 5 5 4 5 4 4 4 4 3 3 2 2 1 2 2 1 1 0 -1 -1 -2 -2 -3 -4 -5 -6 -7 -7 -8 -9
6 6 6 6 6 6 5 5 5 5 6 6 6 6 6 6 5 5 4 4 4 3 3 2 2 2 2 2 1 1 0 -1 -1 -2 -2 -3 -4 -5 -6 -7 -8 -9 -9
6 6 6 6 6 6 5 5 6 6 6 6 6 6 6 5 5 5 4 4 4 3 3 2 2 2 2 2 1 1 0 -0 -1 -2 -2 -3 -4 -5 -6 -7 -8 -8 -9
6 6 6 6 6 6 6 5 6 6 6 6 6 6 6 6 5 5 4 4 4 3 3 2 2 2 2 2 1 1 0 -0 -1 -2 -2 -3 -4 -5 -6 -6 -7 -8 -9
6 6 6 6 6 6 6 6 6 6 7 6 6 7 6 6 6 5 4 4 4 4 3 2 2 2 2 2 1 1 0 -0 -1 -2 -2 -3 -4 -5 -5 -6 -7 -8 -8
6 6 6 6 6 6 6 6 6 7 7 7 7 7 7 6 6 5 5 5 4 4 3 2 2 2 2 2 1 1 0 -0 -1 -2 -2 -3 -4 -4 -5 -6 -6 -7 -8
6 6 5 6 6 6 6 7 7 7 7 7 7 7 7 7 6 6 6 5 5 4 3 2 2 2 2 2 1 1 0 -0 -1 -2 -2 -3 -4 -4 -5 -6 -6 -7 -7
Height
1460 1464 1465 1468 1471 1473 1476 1478 1480 1482 1484 1485 1488 1490 1492 1494 1496 1498 1500 1502 1504 1505 1506 1508 1509 1510 1510 1510 1510 1512 1514 1517 1520 1522 1524 1526 1527 1530 1532 1533 1533 1532 1532
1460 1463 1465 1468 1470 1472 1474 1477 1478 1480 1482 1483 1485 1487 1489 1491 1494 1496 1499 1500 1502 1504 1506 1507 1508 1508 1508 1508 1509 1509 1513 1516 1519 1521 1522 1525 1526 1527 1528 1529 1529 1529 1529
1461 1462 1463 1466 1469 1471 1473 1475 1476 1478 1479 1480 1481 1483 1486 1489 1491 1494 1497 1498 1500 1503 1504 1505 1505 1505 1506 1506 1506 1509 1512 1516 1518 1520 1522 1524 1524 1525 1525 1526 1526 1526 1526
1461 1461 1463 1465 1468 1470 1472 1474 1475 1476 1476 1476 1478 1480 1482 1485 1489 1492 1494 1497 1499 1501 1503 1504 1504 1504 1504 1504 1505 1509 1512 1516 1518 1520 1521 1522 1522 1523 1523 1523 1523 1523 1523
1460 1460 1462 1465 1467 1469 1471 1472 1473 1475 1476 1477 1478 1479 1481 1484 1487 1490 1494 1498 1498 1499 1500 1501 1501 1502 1504 1505 1508 1511 1514 1516 1518 1520 1520 1520 1521 1522 1522 1522 1522 1522 1521
1460 1460 1462 1464 1466 1469 1471 1472 1474 1475 1477 1478 1479 1480 1481 1485 1487 1490 1494 1496 1498 1499 1500 1500 1502 1504 1506 1509 1512 1514 1515 1516 1518 1519 1520 1521 1521 1521 1521 1521 1521 1520 1520
1458 1460 1462 1464 1467 1470 1471 1473 1475 1477 1478 1479 1481 1483 1484 1487 1490 1493 1495 1498 1500 1502 1503 1504 1506 1508 1511 1512 1514 1516 1517 1518 1518 1519 1520 1520 1521 1521 1520 1519 1519 1518 1518
1457 1458 1461 1465 1468 1470 1471 1474 1477 1479 1480 1481 1483 1485 1487 1490 1492 1496 1498 1500 1502 1505 1507 1509 1510 1512 1514 1515 1516 1517 1517 1518 1519 1519 1520 1520 1520 1520 1519 1518 1517 1517 1517
1455 1458 1462 1465 1468 1471 1472 1475 1479 1481 1482 1485 1489 1490 1492 1495 1498 1500 1502 1504 1506 1508 1511 1513 1514 1515 1516 1518 1518 1518 1519 1519 1521 1521 1521 1521 1521 1520 1519 1518 1517 1516 1515
1453 1457 1462 1465 1468 1471 1474 1477 1481 1484 1485 1489 1492 1495 1498 1499 1502 1505 1507 1508 1509 1511 1513 1515 1517 1518 1518 1519 1520 1521 1521 1522 1523 1523 1523 1522 1522 1520 1519 1518 1517 1516 1515
1453 1458 1462 1465 1469 1472 1475 1479 1483 1486 1488 1492 1494 1499 1501 1504 1507 1510 1511 1512 1513 1514 1516 1518 1519 1521 1521 1522 1522 1522 1523 1523 1524 1524 1523 1523 1522 1520 1519 1518 1517 1516 1515
1453 1458 1462 1466 1469 1473 1476 1480 1483 1487 1491 1494 1497 1501 1505 1508 1511 1513 1514 1516 1517 1518 1519 1520 1521 1522 1522 1523 1523 1523 1524 1524 1524 1524 1524 1523 1522 1521 1519 1518 1517 1516 1515
1453 1458 1462 1466 1470 1474 1477 1481 1486 1491 1494 1497 1500 1504 1508 1510 1512 1515 1517 1519 1520 1521 1522 1523 1523 1524 1525 1525 1525 1526 1526 1526 1526 1526 1525 1524 1523 1521 1520 1518 1517 1515 1514
1453 1458 1462 1467 1471 1475 1479 1484 1488 1493 1497 1500 1503 1506 1509 1511 1514 1517 1519 1521 1523 1524 1524 1524 1525 1526 1527 1527 1528 1528 1528 1528 1527 1527 1526 1525 1523 1522 1520 1518 1516 1515 1513
1453 1458 1463 1468 1471 1476 1481 1486 1491 1496 1500 1502 1505 1508 1510 1513 1517 1521 1523 1524 1525 1526 1526 1526 1527 1529 1529 1530 1530 1529 1530 1530 1529 1528 1527 1526 1524 1523 1520 1518 1516 1514 1511
1453 1458 1463 1468 1472 1477 1482 1488 1493 1498 1501 1505 1509 1512 1514 1517 1519 1522 1524 1526 1527 1528 1529 1529 1530 1531 1531 1532 1532 1532 1532 1532 1531 1530 1529 1527 1526 1523 1521 1518 1516 1514 1511
1453 1458 1464 1468 1473 1478 1483 1487 1491 1496 1502 1507 1511 1513 1517 1519 1522 1524 1526 1528 1529 1530 1531 1532 1532 1533 1533 1533 1534 1534 1534 1533 1533 1532 1531 1529 1527 1525 1522 1519 1517 1515 1512
1454 1459 1463 1468 1473 1479 1484 1488 1492 1495 1499 1504 1510 1514 1518 1522 1524 1526 1528 1530 1531 1532 1533 1534 1534 1534 1534 1535 1536 1536 1536 1536 1535 1534 1532 1530 1528 1526 1524 1521 1518 1516 1512
1454 1459 1464 1469 1474 1479 1483 1488 1493 1497 1501 1505 1509 1514 1519 1523 1525 1528 1530 1532 1533 1533 1534 1534 1535 1536 1536 1537 1538 1538 1538 1538 1536 1535 1533 1531 1529 1527 1525 1522 1519 1515 1512
1454 1459 1464 1469 1474 1479 1483 1487 1492 1497 1501 1505 1509 1513 1516 1521 1524 1528 1531 1533 1534 1535 1535 1536 1536 1536 1537 1538 1539 1540 1540 1539 1537 1536 1534 1533 1531 1528 1526 1523 1520 1517 1514
1453 1458 1464 1469 1474 1478 1482 1486 1491 1496 1500 1505 1510 1514 1517 1522 1525 1529 1532 1534 1535 1537 1537 1537 1537 1537 1539 1540 1541 1541 1540 1540 1538 1537 1535 1534 1532 1530 1527 1525 1522 1519 1515
1452 1457 1463 1468 1473 1478 1482 1486 1491 1495 1500 1504 1509 1513 1517 1522 1526 1529 1532 1534 1536 1537 1538 1538 1538 1539 1540 1541 1542 1542 1541 1540 1539 1538 1537 1535 1533 1531 1528 1526 1523 1519 1516
1452 1456 1461 1467 1472 1477 1481 1485 1490 1494 1499 1503 1508 1512 1516 1520 1524 1528 1532 1534 1536 1538 1539 1539 1539 1539 1541 1542 1543 1543 1542 1541 1540 1539 1537 1536 1534 1532 1529 1526 1523 1520 1516
1452 1454 1459 1464 1470 1475 1480 1484 1488 1492 1497 1502 1506 1510 1515 1519 1522 1527 1530 1533 1536 1537 1539 1539 1539 1540 1541 1542 1543 1543 1543 1542 1541 1540 1539 1537 1535 1533 1530 1527 1524 1521 1518
1450 1453 1456 1461 1466 1472 1477 1482 1485 1490 1495 1499 1503 1508 1513 1517 1521 1524 1528 1532 1534 1537 1538 1539 1540 1540 1541 1543 1544 1544 1544 1543 1542 1541 1540 1538 1536 1534 1532 1529 1526 1523 1519
1447 1451 1454 1458 1463 1468 1473 1478 1483 1487 1491 1496 1501 1506 1510 1514 1518 1522 1526 1529 1533 1535 1537 1539 1539 1540 1542 1543 1544 1545 1544 1544 1543 1542 1540 1539 1537 1535 1533 1530 1527 1524 1521
Wind_Speed
15 18 18 18 16 14 12 13 12 11 11 10 12 14 15 14 13 11 9 9 10 8 6 5 9 9 9 10 12 16 14 14 13 12 15 16 18 18 18 18 21 20 16
13 19 18 18 17 16 13 12 11 12 12 12 13 14 15 16 16 13 12 8 9 8 8 9 9 11 8 10 13 21 17 13 13 13 14 15 16 16 18 16 13 14 16
19 20 19 18 16 15 13 11 9 8 10 12 14 16 17 16 13 14 13 10 10 9 8 9 7 7 11 16 18 17 20 13 8 7 9 10 13 14 14 16 15 16 18
17 18 17 16 15 14 10 8 5 4 5 6 9 9 13 18 16 15 13 12 8 9 10 9 9 11 9 5 12 18 18 11 11 4 9 8 9 11 11 10 9 9 10
15 17 15 14 12 11 9 6 4 4 4 8 7 8 10 15 18 16 12 8 8 9 10 10 6 6 6 5 17 14 11 11 7 7 5 4 3 3 4 4 4 4 5
14 12 12 12 12 12 10 7 7 7 10 10 10 9 14 12 12 16 12 10 8 8 12 14 14 10 13 14 9 10 8 6 5 3 1 3 5 3 3 4 5 6 6
15 11 14 14 15 13 11 10 13 12 13 13 12 13 15 16 13 13 12 18 17 16 15 16 16 13 9 8 6 6 5 3 1 2 1 1 2 4 6 7 7 6 7
15 16 17 15 15 12 12 15 15 14 17 17 16 18 20 21 21 22 19 19 20 18 16 14 14 14 10 6 5 6 6 5 3 2 1 2 2 3 4 5 5 5 6
15 19 17 17 17 16 17 18 18 19 20 24 25 25 23 22 19 20 19 18 18 17 16 14 12 11 11 8 5 6 7 8 7 4 3 5 8 9 9 7 4 3 4
17 21 18 18 18 18 21 21 23 21 25 25 23 21 19 19 18 15 13 13 16 17 16 15 12 10 9 10 6 7 7 8 6 7 7 7 9 12 13 12 9 4 4
19 19 19 19 18 19 23 22 22 23 24 24 22 22 20 19 18 14 9 11 13 15 14 13 11 9 9 8 7 6 6 7 7 7 8 9 11 12 12 10 8 7 6
19 19 20 21 19 19 21 21 23 24 25 24 25 25 21 18 14 12 12 11 13 12 12 10 9 7 7 8 7 8 7 7 7 7 8 8 9 10 11 9 6 5 6
19 20 22 22 20 20 22 24 24 24 25 26 24 22 20 18 16 14 14 14 12 9 10 9 8 7 6 6 7 7 5 4 5 6 7 9 9 10 9 10 8 3 6
20 22 24 24 23 24 24 23 23 22 17 19 21 22 21 18 16 17 17 14 10 8 9 11 10 8 7 7 7 7 6 6 6 7 8 9 8 6 7 8 9 7 6
22 24 26 26 25 25 23 22 19 15 12 19 20 19 20 19 16 14 11 10 9 9 8 10 10 8 7 7 7 8 7 7 8 9 9 8 8 8 7 9 9 11 11
25 27 28 28 27 23 23 22 16 12 11 13 13 14 17 16 18 15 12 10 9 9 8 8 8 8 7 8 8 8 7 8 8 9 9 9 9 11 14 13 12 14 16
26 28 29 28 26 25 24 23 23 18 15 15 15 16 15 17 16 13 11 10 9 8 5 6 7 8 8 8 8 7 8 9 9 9 10 11 13 14 15 16 15 17 18
26 27 28 27 26 27 24 22 22 22 24 23 19 17 17 17 15 12 9 8 8 8 5 6 7 7 8 8 7 7 8 8 9 9 10 11 13 14 15 18 18 18 19
27 28 26 25 23 23 26 24 21 21 22 24 24 20 18 17 14 12 10 7 6 6 5 6 7 7 8 6 5 6 6 7 8 9 10 11 12 13 16 18 19 18 16
26 26 24 24 23 22 23 24 22 22 23 24 25 24 25 23 19 15 11 9 6 5 5 6 6 7 7 5 5 5 5 6 8 8 9 11 12 14 15 17 18 20 18
26 27 24 24 23 21 22 23 22 23 23 23 22 22 22 21 18 14 12 10 7 5 5 6 6 7 5 4 4 4 4 6 7 7 9 11 12 13 14 15 17 18 17
23 26 27 25 25 22 22 23 22 22 22 22 22 21 21 20 18 15 13 10 7 5 4 5 6 6 5 4 3 3 4 6 6 7 8 10 12 13 14 15 17 19 17
20 24 28 28 26 24 23 23 23 22 23 23 22 22 22 22 21 18 14 10 7 4 3 4 5 5 4 4 3 3 4 5 6 6 8 10 11 12 14 16 18 18 18
16 22 25 29 29 27 25 22 23 23 23 24 24 22 22 23 22 20 17 12 9 6 3 2 3 5 4 4 3 2 3 4 5 6 7 9 10 12 13 15 16 17 17
16 19 26 28 30 29 27 24 21 23 25 25 25 23 22 22 22 20 18 15 12 9 6 3 2 4 5 4 3 2 3 3 4 5 7 8 10 11 12 14 16 17 17
20 20 23 27 28 31 30 27 23 22 26 27 26 24 23 23 22 20 18 17 15 12 10 6 2 4 5 5 3 2 2 2 3 5 6 8 9 11 12 13 15 17 16
Wind_Direction
194 194 193 183 178 178 188 183 187 191 199 202 206 206 207 210 217 223 229 226 221 222 233 251 240 240 254 275 276 251 207 208 212 212 214 215 220 231 246 261 263 269 266
183 172 167 172 177 178 180 189 196 202 220 223 226 214 210 211 216 219 223 229 230 229 243 260 265 248 264 255 261 241 200 205 219 230 221 232 233 232 249 254 263 271 273
176 171 171 176 180 183 194 196 202 223 240 238 233 225 215 204 206 201 208 208 202 219 230 241 275 258 288 262 255 228 202 203 206 198 193 227 243 252 249 261 265 267 264
183 181 183 194 196 182 184 190 194 202 229 232 206 206 205 202 198 193 201 196 199 227 235 247 249 259 255 257 222 191 177 191 201 265 280 270 259 267 276 278 275 270 265
196 178 175 181 179 164 160 154 147 158 150 147 155 168 176 191 188 191 187 186 205 222 226 242 200 144 128 156 175 171 193 215 212 271 273 261 265 275 275 281 275 271 268
182 174 173 172 160 150 139 131 141 138 149 134 126 141 169 164 158 167 182 174 164 142 132 128 119 124 150 154 172 190 179 202 256 280 248 271 267 273 301 295 293 288 285
180 181 177 166 157 142 134 143 143 148 147 140 136 150 144 157 156 157 158 142 130 126 117 113 115 133 139 151 153 161 164 163 179 244 238 264 304 308 308 306 302 290 279
184 182 172 166 155 149 144 144 146 142 136 131 135 129 127 125 130 136 136 134 127 121 117 117 122 125 122 117 120 136 137 138 123 91 56 47 15 353 329 323 318 299 277
186 176 173 164 160 154 149 145 151 138 132 132 128 127 126 129 135 139 139 131 127 125 122 117 114 118 112 103 105 111 109 99 96 102 76 53 51 40 24 1 327 306 289
177 171 170 165 161 156 153 145 144 136 134 134 135 132 131 130 133 130 133 137 141 132 128 122 114 106 103 99 101 102 113 108 89 63 47 32 19 12 11 16 21 20 21
172 170 162 163 160 158 159 154 154 149 145 142 138 132 134 124 124 122 128 133 136 132 125 121 116 111 107 103 99 92 83 82 78 50 35 26 13 4 4 5 13 25 13
178 168 163 162 160 159 163 163 160 155 152 147 139 137 136 132 133 138 136 140 131 129 123 116 109 109 97 81 80 75 73 62 48 30 15 8 5 4 3 0 8 8 347
175 168 163 162 161 161 159 155 151 151 147 146 149 150 146 147 147 143 140 136 130 130 120 125 128 112 93 107 86 86 85 57 29 9 13 7 359 2 356 7 24 331 288
171 167 164 162 160 163 161 159 157 156 156 162 162 160 158 152 150 146 143 141 135 132 124 118 113 114 107 89 85 83 69 51 34 19 17 15 13 1 345 345 347 355 323
172 169 165 165 163 166 166 163 160 159 173 172 171 165 154 148 140 136 133 128 124 114 114 114 118 114 100 89 86 78 65 50 38 31 26 17 7 2 8 8 359 356 348
172 170 168 169 168 169 167 161 161 169 168 178 172 161 153 149 141 142 136 125 115 102 113 113 117 109 98 90 81 72 68 56 44 33 23 18 16 19 16 11 14 11 9
177 173 171 172 166 172 169 165 163 155 162 171 174 168 166 152 148 143 135 127 108 95 102 122 121 105 96 88 77 73 63 53 45 37 31 28 27 24 18 13 20 14 6
181 178 179 173 169 176 178 179 182 173 164 163 169 169 164 161 153 144 137 130 117 117 114 119 110 98 91 81 81 73 62 55 45 35 30 32 28 24 18 16 18 8 356
184 184 183 179 178 184 180 185 185 179 172 168 166 168 168 169 159 148 139 120 104 110 111 118 109 96 86 83 82 74 65 54 43 36 32 29 24 21 19 14 10 8 13
188 192 188 185 184 187 184 183 185 184 179 178 176 173 171 178 172 162 151 133 120 111 107 112 110 98 86 88 88 83 66 49 40 36 30 27 23 21 19 17 20 23 23
191 195 195 192 190 186 186 189 189 189 187 186 185 184 184 182 175 168 156 140 124 106 100 103 106 98 94 99 98 84 62 50 42 37 29 28 25 21 19 20 21 20 16
199 199 199 199 196 194 194 195 195 195 192 191 189 190 190 187 186 181 170 156 138 121 97 96 107 108 111 116 111 89 62 52 45 38 33 29 25 23 22 21 19 19 22
213 204 204 204 203 200 200 201 200 200 197 195 196 198 194 192 192 192 186 180 165 141 100 94 111 115 121 126 122 99 64 51 44 38 35 30 26 24 22 20 20 23 20
222 215 210 209 207 205 206 204 204 204 203 201 200 203 199 198 198 198 198 197 196 190 167 114 119 126 132 136 141 104 65 49 40 36 34 29 24 24 23 22 25 23 23
226 222 216 214 212 208 208 207 205 204 204 205 203 204 202 202 203 204 206 207 208 204 199 187 134 149 147 150 149 109 65 40 35 32 33 28 24 24 22 22 23 23 23
226 225 224 220 216 213 210 208 208 206 206 207 205 205 206 205 205 206 208 207 206 203 203 200 177 170 160 159 162 136 71 38 27 28 30 26 23 24 22 19 22 23 23